World > North America > United States > Mississippi

Savage, Mississippi Regional Weather

Lat: 34.60N, Lon: 90.13W
Wx Zone: MSZ008Web Search

Pass this page to a friend. Tell them to point their camera at the QR Code near the bottom of this page.

Feedback


°F Click to change Savage hourly weather to Imperial units.Click to change Savage hourly weather to Metric units. °C
Savage Weather Map
UTC Time: 4/14/2021, 05:26
Your Time:

Savage, MS Regional Weather

Expires:202104140600;;522063
ASUS44 KJAN 140510
RWRMS 

MISSISSIPPI HOURLY WEATHER ROUNDUP
NATIONAL WEATHER SERVICE JACKSON MS
1200 AM CDT WED APR 14 2021

NOTE: "FAIR: INDICATES FEW OR NO CLOUDS BELOW 12,000 FEET WITH NO
SIGNIFICANT WEATHER AND/OR OBSTRUCTIONS TO VISIBILITY.


MSZ001>002-007>008-010>013-018>021-025>028-034>036-140600-
NORTHWEST MISSISSIPPI
  
CITY           SKY/WX    TMP DP  RH WIND       PRES   REMARKS
BATESVILLE     FAIR      57  55  94 CALM      30.04F                  
CLARKSDALE       N/A     63  57  82 N7        30.04F                  
CLEVELAND      FAIR      65  57  76 S6        30.03F                  
GREENWOOD      MOCLDY    63  55  75 S5        30.04S                  
GREENVILLE     PTCLDY    64  57  78 S5        30.04R                  
OLIVE BRANCH   CLOUDY    61  52  72 NE6       30.06R                  
OXFORD         CLEAR     57  54  88 CALM      30.06S                  
TUNICA         CLEAR     59  52  77 N8        30.06F                  
$$


SKY/WX - Weather  TMP - Temperature  DP - Dew Point  RH - Relative Humidity
WIND - Wind Direction/Speed PRES - Barometric Pressure VSB - Visibility
WCI - Wind Chill Index E13G22 Wind - East Wind 13 mph/Gusts of 22 mph